This is the latest recevied weather packets stored in our database for station/object KH6HHG. If no packets are shown the sender has not sent any weather packets the latest 10 day(s).
| Time | Temp. | Humidity | Pressure | Rain* | Wind** | Luminosity | Snow |
|---|---|---|---|---|---|---|---|
| 1777907499 | 17.22° C | 86% | 1013.6 hPa | 0 mm | - | - | - |
| 1777907199 | 17.22° C | 85% | 1013.4 hPa | 0 mm | - | - | - |
| 1777906899 | 17.22° C | 85% | 1013.4 hPa | 0 mm | - | - | - |
| 1777906599 | 17.78° C | 86% | 1013.2 hPa | 0 mm | - | - | - |
| 1777906299 | 17.78° C | 85% | 1013.2 hPa | 0 mm | - | - | - |
| 1777905999 | 17.78° C | 84% | 1013.1 hPa | 0 mm | - | - | - |
| 1777905699 | 17.78° C | 83% | 1013 hPa | 0 mm | - | - | - |
| 1777905399 | 18.33° C | 83% | 1013 hPa | 0 mm | - | - | - |
| 1777905099 | 18.33° C | 83% | 1013 hPa | 0 mm | - | - | - |
| 1777904799 | 18.33° C | 83% | 1013 hPa | 0 mm | - | - | - |
| 1777904499 | 18.33° C | 83% | 1012.9 hPa | 0 mm | - | - | - |
| 1777904199 | 18.33° C | 84% | 1012.9 hPa | 0 mm | - | - | - |
| 1777903899 | 18.33° C | 86% | 1012.8 hPa | 0 mm | - | - | - |
| 1777903599 | 18.33° C | 89% | 1012.7 hPa | 0 mm | - | - | - |
| 1777903299 | 18.33° C | 89% | 1012.8 hPa | 0 mm | - | - | - |
| 1777902999 | 18.33° C | 89% | 1012.9 hPa | 0 mm | - | - | - |
| 1777902699 | 18.33° C | 88% | 1012.9 hPa | 0 mm | - | - | - |
| 1777902399 | 18.33° C | 87% | 1013 hPa | 0 mm | - | - | - |
| 1777902099 | 18.33° C | 87% | 1013.1 hPa | 0 mm | - | - | - |
| 1777901799 | 18.33° C | 87% | 1013.1 hPa | 0 mm | - | - | - |
| 1777901499 | 18.33° C | 87% | 1013 hPa | 0 mm | - | - | - |
| 1777901199 | 18.33° C | 87% | 1012.9 hPa | 0 mm | - | - | - |
| 1777900899 | 18.33° C | 86% | 1013 hPa | 0 mm | - | - | - |
| 1777900599 | 18.89° C | 84% | 1013 hPa | 0 mm | - | - | - |
| 1777900300 | 18.89° C | 85% | 1012.9 hPa | 0 mm | - | - | - |
* Rain latest hour (hover to see other rain measurements)
** Current wind speed in m/s (hover to see current wind gust speed)